EW4694 Weather Reports


Display with metric or nautical units.
time (UTC)temp
F
wind
direction
speed
MPH
gust
MPH
rain 1hr
in
rain 24hr
in
rain mn
in
humidity
%
barometer
mb
20260901040042 69 16 0.0 0.0 0.00 0.00 0.00 1 1018.7
20260901034518 69 16 0.0 0.0 0.00 0.00 0.00 1 1018.8
20260901033018 69 16 0.0 0.0 0.00 0.00 0.00 1 1019.0
20260901031558 70 16 0.0 0.0 0.00 0.00 0.00 1 1019.2
20260901030049 70 16 0.0 0.0 0.00 0.00 0.00 1 1019.3
20260901024527 70 16 0.0 0.0 0.00 0.00 0.00 1 1019.3
20260901023034 71 16 0.0 0.0 0.00 0.00 0.00 1 1019.4
20260901021512 71 16 0.0 0.0 0.00 0.00 0.00 1 1019.4
20260901020008 71 16 0.0 0.0 0.00 0.00 0.00 1 1019.3
20260901014503 71 16 0.0 0.0 0.00 0.00 0.00 1 1019.1
20260901013100 71 16 0.0 0.0 0.00 0.00 0.00 1 1018.9
20260901011555 72 16 0.0 0.0 0.00 0.00 0.00 1 1018.9
20260901010053 72 16 0.0 0.0 0.00 0.00 0.00 1 1018.8
20260901004556 72 16 0.0 0.0 0.00 0.00 0.00 1 1018.7
20260901003045 72 16 0.0 0.0 0.00 0.00 0.00 1 1018.4
20260901001524 73 16 0.0 0.0 0.00 0.00 0.00 1 1018.3
20260901000019 74 16 0.0 0.0 0.00 0.00 0.00 1 1018.3
20260831234603 74 16 0.0 0.0 0.00 0.00 0.00 1 1018.3
20260831233054 75 16 0.0 0.0 0.00 0.00 0.00 1 1018.3
20260831231537 76 5 0.0 0.0 0.00 0.00 0.00 1 1018.6
20260831230035 76 34 0.0 0.0 0.00 0.00 0.00 1 1018.8
20260831224505 76 302 0.0 0.0 0.00 0.00 0.00 1 1018.9
20260831223001 76 332 0.0 0.0 0.00 0.00 0.00 1 1018.9
20260831221541 76 298 0.0 0.0 0.00 0.00 0.00 1 1018.7
20260831220038 76 298 0.0 0.0 0.00 0.00 0.00 1 1018.8
20260831214516 76 129 0.0 0.0 0.00 0.00 0.00 1 1018.7
20260831213012 76 131 0.0 0.0 0.00 0.00 0.00 19 1018.6
20260831211556 78 96 0.0 0.0 0.00 0.00 0.00 42 1018.6
20260831210051 81 111 0.0 0.0 0.00 0.00 0.00 34 1018.5
20260831204547 83 317 0.0 0.0 0.00 0.00 0.00 59 1018.5
20260831203043 87 269 0.0 0.0 0.00 0.00 0.00 64 1018.2
20260831201538 88 269 0.0 0.0 0.00 0.00 0.00 63 1018.3
20260831200037 89 275 0.0 0.0 0.00 0.00 0.00 61 1018.5
20260831194553 89 277 0.0 0.0 0.00 0.00 0.00 62 1018.7
20260831193025 88 269 0.0 0.0 0.00 0.00 0.00 62 1018.8
20260831191518 87 261 0.0 0.0 0.00 0.00 0.00 62 1019.0
20260831190005 87 261 0.0 0.0 0.00 0.00 0.00 64 1019.2
20260831184501 85 289 0.0 0.0 0.00 0.00 0.00 64 1019.4
20260831183105 85 292 0.0 0.0 0.00 0.00 0.00 63 1019.5
20260831181559 84 279 0.0 0.0 0.00 0.00 0.00 62 1019.7
20260831180048 83 286 0.0 0.0 0.00 0.00 0.00 61 1019.7
20260831174543 83 267 0.0 0.0 0.00 0.00 0.00 58 1020.0
20260831173038 82 294 0.0 0.0 0.00 0.00 0.00 56 1020.1
20260831171539 80 190 0.0 0.0 0.00 0.00 0.00 46 1020.2
20260831170013 80 261 0.0 0.0 0.00 0.00 0.00 40 1020.3
20260831164512 80 261 0.0 0.0 0.00 0.00 0.00 47 1020.3
20260831163050 79 261 0.0 0.0 0.00 0.00 0.00 39 1020.5
20260831161543 78 262 0.0 0.0 0.00 0.00 0.00 30 1020.6
20260831160022 76 315 0.0 0.0 0.00 0.00 0.00 6 1020.7
20260831154517 74 209 0.0 0.0 0.00 0.00 0.00 1 1020.6
20260831153055 74 163 0.0 0.0 0.00 0.00 0.00 1 1020.7
20260831151551 73 122 0.0 0.0 0.00 0.00 0.00 1 1020.8
20260831150029 73 164 0.0 0.0 0.00 0.00 0.00 1 1020.8
20260831144532 72 164 0.0 0.0 0.00 0.00 0.00 1 1020.7
20260831143008 72 164 0.0 0.0 0.00 0.00 0.00 1 1020.6
20260831141615 71 164 0.0 0.0 0.00 0.00 0.00 1 1020.7
20260831140044 71 117 0.0 0.0 0.00 0.00 0.00 1 1020.7
20260831134536 70 121 0.0 0.0 0.00 0.00 0.00 1 1020.6
20260831133016 70 130 0.0 0.0 0.00 0.00 0.00 1 1020.6
20260831131510 70 15 0.0 0.0 0.00 0.00 0.00 1 1020.7
20260831130053 69 114 0.0 0.0 0.00 0.00 0.00 1 1020.5
20260831124542 69 114 0.0 0.0 0.00 0.00 0.00 1 1020.4
20260831123021 68 222 0.0 0.0 0.00 0.00 0.00 1 1020.2
20260831121518 68 248 0.0 0.0 0.00 0.00 0.00 1 1020.2
20260831120055 67 167 0.0 0.0 0.00 0.00 0.00 1 1020.1
20260831114551 0 0.0 0.0 0.00 0.00 0.00 1020.0
20260831113029 0 0.0 0.0 0.00 0.00 0.00 1019.8
20260831111524 0 0.0 0.0 0.00 0.00 0.00 1019.8
20260831110004 0 0.0 0.0 0.00 0.00 0.00 1019.6
20260831104558 0 0.0 0.0 0.00 0.00 0.00 1019.4
20260831103043 0 0.0 0.0 0.00 0.00 0.00 1019.4
20260831101549 0 0.0 0.0 0.00 0.00 0.00 1019.4
20260831100036 0 0.0 0.0 0.00 0.00 0.00 1019.4
20260831094530 0 0.0 0.0 0.00 0.00 0.00 1019.5
20260831093026 0 0.0 0.0 0.00 0.00 0.00 1019.6
20260831091521 0 0.0 0.0 0.00 0.00 0.00 1019.5
20260831090019 0 0.0 0.0 0.00 0.00 0.00 1019.5
20260831084512 67 170 0.0 0.0 0.00 0.00 0.00 1 1019.4
20260831083053 67 170 0.0 0.0 0.00 0.00 0.00 1 1019.3
20260831081548 67 170 0.0 0.0 0.00 0.00 0.00 1 1019.3
20260831080025 67 170 0.0 0.0 0.00 0.00 0.00 1 1019.4
20260831074523 67 170 0.0 0.0 0.00 0.00 0.00 1 1019.3
20260831073015 67 170 0.0 0.0 0.00 0.00 0.00 1 1019.2
20260831071602 67 170 0.0 0.0 0.00 0.00 0.00 1 1019.2
20260831070056 68 170 0.0 0.0 0.00 0.00 0.00 1 1019.1
20260831064556 68 170 0.0 0.0 0.00 0.00 0.00 1 1019.1
20260831063047 68 170 0.0 0.0 0.00 0.00 0.00 1 1019.2
20260831061556 68 170 0.0 0.0 0.00 0.00 0.00 1 1019.4
20260831060039 69 170 0.0 0.0 0.00 0.00 0.00 1 1019.5
20260831054534 69 170 0.0 0.0 0.00 0.00 0.00 1 1019.6
20260831053013 70 170 0.0 0.0 0.00 0.00 0.00 1 1019.6
20260831051521 70 170 0.0 0.0 0.00 0.00 0.00 1 1019.7
20260831050047 71 170 0.0 0.0 0.00 0.00 0.00 1 1019.8
20260831044546 71 170 0.0 0.0 0.00 0.00 0.00 1 1019.8
20260831043022 71 170 0.0 0.0 0.00 0.00 0.00 1 1019.8
20260831041524 71 170 0.0 0.0 0.00 0.00 0.00 1 1019.9